Otevřít hlavní menu

Seznam dílů seriálu Smallville

seznam na projektech Wikimedia

Toto je seznam dílů seriálu Smallville. Americký dramatický seriál Smallville byl vysílán od 16. října 2001 do 13. května 2011, v deseti řadách vzniklo celkem 218 dílů. Do roku 2006 jej vysílala televize The WB, od září 2006 pak její nástupnická stanice The CW. V Česku byl premiérově vysílán v letech 2003–2011 na TV Nova, poslední řada v roce 2013 na stanici Fanda.

Přehled řadEditovat

ŘadaDílyPremiéra v USAPremiéra v ČRStanice v USA
První dílPoslední dílPrvní dílPoslední díl
1 2120011016a16. října 200120020521a21. května 200220030819a19. srpna 200320030916a16. září 2003The WB
2 2320020924a24. září 200220030520a20. května 200320040805a5. srpna 200420040906a6. září 2004The WB
3 2220031001a1. října 200320040519a19. května 200420060320a20. března 200620060419a19. dubna 2006The WB
4 2220040922a22. září 200420050518a18. května 200520060420a20. dubna 200620060523a23. května 2006The WB
5 2220050929a29. září 200520060511a11. května 200620080331a31. března 200820080429a29. dubna 2008The WB
6 2220060928a28. září 200620070517a17. května 200720080430a30. dubna 200820080602a2. června 2008The CW
7 2020070927a27. září 200720080515a15. května 200820100215a15. února 201020100312a12. března 2010The CW
8 2220080918a18. září 200820090514a14. května 200920100315a15. března 201020100414a14. dubna 2010The CW
9 2220090925a25. září 200920100514a14. května 201020110923a23. září 201120111025a25. října 2011The CW
10 2220100924a24. září 201020110513a13. května 201120111026a26. října 201120130501a1. května 2013The CW

Seznam dílůEditovat

První řada (2001–2002)Editovat

Č. v seriáluČ. v řaděPůvodní názevČeský názevRežieScénářPremiéra v USA
(The WB)
Premiéra v ČR
11PilotDar z nebes David NutterAlfred Gough a Miles Millar20011016a16. října 200120030819a19. srpna 2003}[1]
22MetamorphosisProměna Michael Watkins a Philip SgricciaAlfred Gough a Miles Millar20011023a23. října 200120030820a20. srpna 2003[1]
33HotheadHerní zápal Greg BeemanGreg Walker20011030a30. října 200120030821a21. srpna 2003[1]
44X-RayRentgenové oči James FrawleyMark Verheiden20011106a6. listopadu 200120030822a22. srpna 2003[1]
55CoolPod bodem mrazu James A. ContnerMichael Green20011113a13. listopadu 200120030825a25. srpna 2003[2]
66HourglassTajemství mládí Chris LongDoris Egan20011120a20. listopadu 200120030826a26. srpna 2003[2]
77CravingPodivná dieta Philip SgricciaMichael Green20011127a27. listopadu 200120030827a27. srpna 2003[2]
88JittersPod kůží Michael WatkinsCherie Bennett a Jeff Gottesfeld20011211a11. prosince 200120030828a28. srpna 2003[2]
99RogueVyděrač David CarsonMark Verheiden20020115a15. ledna 200220030829a29. srpna 2003[2]
1010ShimmerNeviditelný D. J. CarusoMark Verheiden a Michael Green20020129a29. ledna 200220030901a1. září 2003[3]
1111HugProti své vůli Chris LongDoris Egan20020205a5. února 200220030902a2. září 2003[3]
1212LeechZtráta schopností Greg BeemanTimothy Schlattmann20020212a12. února 200220030903a3. září 2003[3]
1313KineticTetování Robert SingerPhilip Levens20020226a26. února 200220030904a4. září 2003[3]
1414ZeroNulové následky Michael Katlemannámět: Alfred Gough a Miles Millar
scénář: Mark Verheiden
20020312a12. března 200220030905a5. září 2003[3]
1515NicodemusNicodemus James Marshallnámět: Greg Walker
scénář: Michael Green
20020319a19. března 200220030908a8. září 2003[4]
1616StrayNalezenec Paul ShapiroPhilip Levens20020416a16. dubna 200220030909a9. září 2003[4]
1717ReaperPosel smrti Terrence O'HaraCameron Litvack20020423a23. dubna 200220030910a10. září 2003[4]
1818DroneVolby Michael KatlemanMichael Green a Philip Levens20020430a30. dubna 200220030911a11. září 2003[4]
1919CrushNehoda James MarshallPhilip Levens, Alfred Gough a Miles Millar20020507a7. května 200220030912a12. září 2003[4]
2020ObscuraCizíma očima Terrence O'Haranámět: Greg Walker
scénář: Mark Verheiden a Michael Green
20020514a14. května 200220030915a15. září 2003[5]
2121TempestBouře Greg Beemannámět: Philip Levens
scénář: Alfred Gough a Miles Millar
20020521a21. května 200220030916a16. září 2003[5]

Druhá řada (2002–2003)Editovat

Č. v seriáluČ. v řaděPůvodní názevČeský názevRežieScénářPremiéra v USA
(The WB)
Premiéra v ČR
221VortexTornádo Greg Beemannámět: Alfred Gough a Miles Millar
scénář: Philip Levens
20020924a24. září 200220040805a5. srpna 2004[6]
232HeatSvůdkyně James MarshallMark Verheiden20021001a1. října 200220040806a6. srpna 2004[6]
243DuplicityTajemství Steve MinerTodd Slavkin a Darren Swimmer20021008a8. října 200220040809a9. srpna 2004[7]
254RedFalešný rubín Jeff WoolnoughJeph Loeb20021015a15. října 200220040810a10. srpna 2004[7]
265NocturneBásník Rick WallaceBrian Peterson a Kelly Souders20021022a22. října 200220040811a11. srpna 2004[7]
276ReduxVěčná studentka Chris LongRussel Friend a Garrett Lerner20021029a29. října 200220040812a12. srpna 2004[7]
287LineageRodina Greg Beemannámět: Alfred Gough a Miles Millar
scénář: Kenneth Biller
20021105a5. listopadu 200220040813a13. srpna 2004[7]
298RyanRyan Terrence O'HaraPhilip Levens20021112a12. listopadu 200220040816a16. srpna 2004[8]
309DichoticRozdvojení Craig ZiskMark Verheiden20021119a19. listopadu 200220040817a17. srpna 2004[8]
3110SkinwalkerVlčí lidé Marita Grabiaknámět: Mark Warshaw
scénář: Brian Peterson a Kelly Souders
20021126a26. listopadu 200220040818a18. srpna 2004[8]
3211VisageNávrat hrdiny William GereghtyTodd Slavkin a Darren Swimmer20030114a14. ledna 200320040819a19. srpna 2004[8]
3312InsurgenceRukojmí James MarshallKenneth Biller a Jeph Loeb20030121a21. ledna 200320040820a20. srpna 2004[8]
3413SuspectPodezřelý Greg BeemanMark Verheiden a Philip Levens20030128a28. ledna 200320040823a23. srpna 2004[9]
3514RushAdrenalin Rick RosenthalTodd Slavkin a Darren Swimmer20030204a4. února 200320040824a24. srpna 2004[9]
3615ProdigalZtracený syn Greg BeemanBrian Peterson a Kelly Souders20030211a11. února 200320040825a25. srpna 2004[9]
3716FeverHorečka Bill GereghtyMatthew Okumura20030218a18. února 200320040826a26. srpna 2004[9]
3817RosettaStrom života James MarshallAlfred Gough a Miles Millar20030225a25. února 200320040827a27. srpna 2004[9]
3918VisitorNávštěvník Rick RosenthalPhilip Levens20030415a15. dubna 200320040830a30. srpna 2004[10]
4019PrecipiceStín minulosti Thomas J. WrightClint Carpenter20030422a22. dubna 200320040831a31. srpna 2004[10]
4120WitnessSvědek Rick WallaceMark Verheiden20030429a29. dubna 200320040901a1. září 2004[10]
4221AccelerateDuch James Marshallnámět: Todd Slavkin a Darren Swimmer
scénář: Brian Peterson a Kelly Souders
20030506a6. května 200320040902a2. září 2004[10]
4322CallingProcitnutí Terrence O'HaraKenneth Biller20030513a13. května 200320040903a3. září 2004[10]
4423ExodusNeposlušný syn Greg BeemanAlfred Gough a Miles Millar20030520a20. května 200320040906a6. září 2004[11]

Třetí řada (2003–2004)Editovat

Č. v seriáluČ. v řaděPůvodní názevČeský názevRežieScénářPremiéra v USA
(The WB)
Premiéra v ČR
451ExileVyhnanec Greg BeemanAlfred Gough a Miles Millar20031001a1. října 200320060320a20. března 2006[12]
462PhoenixFéníx James MarshallKelly Souders a Brian Peterson20031008a8. října 200320060321a21. března 2006[12]
473ExtinctionZrůda Michael KatlemanTodd Slavkin a Darren Swimmer20031015a15. října 200320060322a22. března 2006[12]
484SlumberDívka ze snu Daniel AttiasDrew Z. Greenberg20031022a22. října 200320060323a23. března 2006[12]
495PerryErupce Jeannot SzwarcMark Verheiden20031029a29. října 200320060324a24. března 2006[12]
506RelicObrazy z minulosti Marita GrabiakKelly Souders a Brian Peterson20031105a5. listopadu 200320060327a27. března 2006[13]
517MagneticMagnetismus David JacksonHolly Harold20031112a12. listopadu 200320060328a28. března 2006[13]
528ShatteredNepříčetnost Ken BillerKen Biller20031119a19. listopadu 200320060329a29. března 2006[13]
539AsylumSanatorium Greg BeemanTodd Slavkin a Darren Swimmer20040114a14. ledna 200420060330a30. března 2006[13]
5410WhisperDokonalý sluch Tom WrightKen Horton20040121a21. ledna 200420060331a31. března 2006[13]
5511DeleteVražedný e-mail Pat WilliamsKelly Souders a Brian Peterson20040128a28. ledna 200420060403a3. dubna 2006[14]
5612HereafterPředtucha Greg Beeman a James MarshallMark Verheiden a Drew Z. Greenberg20040204a4. února 200420060404a4. dubna 2006[14]
5713VelocityRychlá kola Jeannot SzwarcTodd Slavkin a Darren Swimmer20040211a11. února 200420060405a5. dubna 2006[14]
5814ObsessionPosedlost James MarshallHolly Harold20040218a18. února 200420060406a6. dubna 2006[14]
5915ResurrectionZmrtvýchvstání Terrence O'HaraTodd Slavkin a Darren Swimmer20040225a25. února 200420060407a7. dubna 2006[14]
6016CrisisVolání z budoucnosti Ken BillerKelly Souders a Brian Peterson20040303a3. března 200420060410a10. dubna 2006[15]
6117LegacyDědictví Greg BeemanJeph Loeb20040414a14. dubna 200420060411a11. dubna 2006[15]
6218TruthSérum pravdy James MarshallDrew Z. Greenberg20040421a21. dubna 200420060412a12. dubna 2006[15]
6319MemoriaZtracená paměť Miles MillarAlfred Gough a Miles Millar20040428a28. dubna 200420060413a13. dubna 2006[15]
6420TalismanHvězdná čepel John SchneiderKen Biller20040505a5. května 200420060414a14. dubna 2006[15]
6521ForsakenOdpuštění Terrence O'HaraKelly Souders a Brian Peterson20040512a12. května 200420060418a18. dubna 2006[16]
6622CovenantKrajanka Greg Beemannámět: Todd Slavkin a Darren Swimmer
scénář: Alfred Gough a Miles Millar
20040519a19. května 200420060419a19. dubna 2006[16]

Čtvrtá řada (2004–2005)Editovat

Č. v seriáluČ. v řaděPůvodní názevČeský názevRežieScénářPremiéra v USA
(The WB)
Premiéra v ČR
671CrusadeVálka Greg BeemanAlfred Gough a Miles Millar20040922a22. září 200420060420a20. dubna 2006[16]
682GoneNávrat James MarshallKelly Souders a Brian Peterson20040929a29. září 200420060421a21. dubna 2006[16]
693FaçadePozlátko Pat WilliamsHolly Harold20041006a6. října 200420060424a24. dubna 2006[17]
704DevotedNápoj lásky David CarsonLuke Schelhaas20041013a13. října 200420060425a25. dubna 2006[17]
715RunRychlejší než blesk David BarrettSteven S. DeKnight20041020a20. října 200420060426a26. dubna 2006[17]
726TransferencePřevtělení James MarshallTodd Slavkin a Darren Swimmer20041027a27. října 200420060427a27. dubna 2006[17]
737JinxFinále Paul ShapiroMark Warshaw20041103a3. listopadu 200420060428a28. dubna 2006[17]
748SpellKouzlo Jeannot SzwarcSteven S. DeKnight20041110a10. listopadu 200420060502a2. května 2006[18]
759BoundVražedný flirt Terrence O'HaraLuke Schelhaas20041117a17. listopadu 200420060503a3. května 2006[18]
7610ScareNoční můra David CarsonKelly Souders a Brian Peterson20041201a1. prosince 200420060504a4. května 2006[18]
7711UnsafeSvatba Greg BeemanSteven S. DeKnight a Jeph Loeb20050126a26. ledna 200520060505a5. května 2006[18]
7812PariahBolestná ztráta Paul ShapiroHolly Harold20050202a2. února 200520060509a9. května 2006[19]
7913RecruitKonec fotbalisty Jeannot SzwarcTodd Slavkin a Darren Swimmer20050209a9. února 200520060510a10. května 2006[19]
8014KryptoPsí kamarád James MarshallLuke Schelhaas20050216a16. února 200520060511a11. května 2006[19]
8115SacredDruhý kámen Brad TurnerKelly Souders a Brian Peterson20050223a23. února 200520060512a12. května 2006[19]
8216LucyLucy David Barrettnámět: Neil Sadhu
scénář: Neil Sadhu a Daniel Sulzberg
20050302a2. března 200520060515a15. května 2006[20]
8317OnyxDruhé já Terrence O'HaraSteven S. DeKnight20050413a13. dubna 200520060516a16. května 2006[20]
8418SpiritDuch Whitney RansickLuke Schelhaas20050420a20. dubna 200520060517a17. května 2006[20]
8519BlankZtráta paměti Jeannot SzwarcKelly Souders a Brian Peterson20050427a27. dubna 200520060518a18. května 2006[20]
8620AgelessEvan Steven S. DeKnightSteven S. DeKnight20050504a4. května 200520060519a19. května 2006[20]
8721ForeverZajatci okamžiku James MarshallBrian Peterson a Kelly Souders20050511a11. května 200520060522a22. května 2006[21]
8822CommencementTajemství kamenů Greg BeemanTodd Slavkin a Darren Swimmer20050518a18. května 200520060523a23. května 2006[21]

Pátá řada (2005–2006)Editovat

Č. v seriáluČ. v řaděPůvodní názevČeský názevRežieScénářPremiéra v USA
(The WB)
Premiéra v ČR
891ArrivalNávštěva z vesmíru James MarshallTodd Slavkin a Darren Swimmer20050929a29. září 200520080331a31. března 2008[22]
902MortalObyčejný smrtelník Terrence O'HaraSteven S. DeKnight20051006a6. října 200520080401a1. dubna 2008[22]
913HiddenNávrat v pravý čas Whitney RansickKelly Souders a Brian Peterson20051013a13. října 200520080402a2. dubna 2008[22]
924AquaVoda Bradford MayTodd Slavkin a Darren Swimmer20051020a20. října 200520080403a3. dubna 2008[22]
935ThirstŽízeň Paul ShapiroSteven S. DeKnight20051027a27. října 200520080404a4. dubna 2008[22]
946ExposedOdhalení Jeannot SzwarcKelly Souders a Brian Peterson20051103a3. listopadu 200520080407a7. dubna 2008[23]
957SplinterZáhadný kámen James MarshallSteven S. DeKnight20051110a10. listopadu 200520080408a8. dubna 2008[23]
968SolitudeSamota Paul ShapiroTodd Slavkin a Darren Swimmer20051117a17. listopadu 200520080409a9. dubna 2008[23]
979LexmasLexovy Vánoce Rick RosenthalHolly Harold20051208a8. prosince 200520080410a10. dubna 2008[23]
9810FanaticFanatik Michael RohlWandy Mericle20060112a12. ledna 200620080411a11. dubna 2008[23]
9911LockdownPřepadení Peter EllisSteven S. DeKnight20060119a19. ledna 200620080414a14. dubna 2008[24]
10012ReckoningZúčtování Greg BeemanKelly Souders a Brian Peterson20060126a26. ledna 200620080415a15. dubna 2008[24]
10113VengeancePomsta Jeannot SzwarcAl Septien a Turi Meyer20060202a2. února 200620080416a16. dubna 2008[24]
10214TombHrob Whitney RansickSteven S. DeKnight20060209a9. února 200620080417a17. dubna 2008[24]
10315CyborgKyborg Glen WinterCaroline Dries20060216a16. února 200620080418a18. dubna 2008[24]
10416HypnoticHypnóza Michael RohlTodd Slavkin a Darren Swimmer20060330a30. března 200620080421a21. dubna 2008[25]
10517VoidPrázdnota Jeannot SzwarcHolly Harold20060406a6. dubna 200620080422a22. dubna 2008[25]
10618FragileKřehká duše Tom WellingTodd Slavkin a Darren Swimmer20060413a13. dubna 200620080423a23. dubna 2008[25]
10719MercyMilost James MarshallSteven S. DeKnight20060420a20. dubna 200620080424a24. dubna 2008[25]
10820FadeChameleon Terrence O'HaraTuri Meyer a Al Septien20060427a27. dubna 200620080425a25. dubna 2008[25]
10921OracleMédium Patrick Norrisnámět: Neil Sadhu a Daniel Sulzberg
scénář: Caroline Dries
20060504a4. května 200620080428a28. dubna 2008[26]
11022VesselSchránka James MarshallKelly Souders a Brian Peterson20060511a11. května 200620080429a29. dubna 2008[26]

Šestá řada (2006–2007)Editovat

Č. v seriáluČ. v řaděPůvodní názevČeský názevRežieScénářPremiéra v USA
(The CW)
Premiéra v ČR
1111ZodZod James MarshallSteven S. DeKnight20060928a28. září 200620080430a30. dubna 2008[26]
1122SneezeNachlazení Paul ShapiroTodd Slavkin a Darren Swimmer20061005a5. října 200620080502a2. května 2008[26]
1133WitherZrádná příroda Whitney RansickTracy Bellomo20061012a12. října 200620080505a5. května 2008[27]
1144ArrowZbojník Michael RohlBrian Peterson a Kelly Souders20061019a19. října 200620080506a6. května 2008[27]
1155ReunionTřídní sraz Jeannot SzwarcSteven S. DeKnight20061026a26. října 200620080507a7. května 2008[27]
1166FalloutDozvuky Glen WinterHolly Harold20061102a2. listopadu 200620080509a9. května 2008[27]
1177RageZuřivost Whitney RansickTodd Slavkin a Darren Swimmer20061109a9. listopadu 200620080512a12. května 2008[28]
1188StaticÚnos do jiné frekvence James ConwayShintaro Shimosawa a James Morris20061116a16. listopadu 200620080513a13. května 2008[28]
1199SubterraneanPodzemí Rick RosenthalCaroline Dries20061207a7. prosince 200620080514a14. května 2008[28]
12010HydroVoda Tom WellingBrian Peterson a Kelly Souders20070111a11. ledna 200720080515a15. května 2008[28]
12111JusticeSpolek spravedlivých Steven S. DeKnightSteven S. DeKnight20070118a18. ledna 200720080516a16. května 2008[28]
12212LabyrinthBludiště Whitney RansickAl Septien a Turi Meyer20070125a25. ledna 200720080519a19. května 2008[29]
12313CrimsonPurpur Glen WinterBrian Peterson a Kelly Souders20070201a1. února 200720080520a20. května 2008[29]
12414TrespassVetřelec Michael RohlTracy A. Bellomo20070208a8. února 200720080521a21. května 2008[29]
12515FreakNakažení Michael RosenbaumTodd Slavkin a Darren Swimmer20070215a15. února 200720080522a22. května 2008[29]
12616PromiseSlib Rick RosenthalKelly Souders a Brian Peterson20070315a15. března 200720080523a23. května 2008[29]
12717CombatZápas James MarshallTuri Meyer a Al Septien20070322a22. března 200720080526a26. května 2008[30]
12818ProgenyPotomci Terrence O'HaraGenevieve Sparling20070419a19. dubna 200720080527a27. května 2008[30]
12919NemesisDávní přátelé Mairzee AlmasCaroline Dries20070426a26. dubna 200720080528a28. května 2008[30]
13020NoirDetektivní příběh Jeannot SzwarcBrian Peterson a Kelly Souders20070503a3. května 200720080529a29. května 2008[30]
13121PrototypePrototyp Mat BeckSteven S. DeKnight20070510a10. května 200720080530a30. května 2008[30]
13222PhantomPřízrak James MarshallTodd Slavkin a Darren Swimmer20070517a17. května 200720080602a2. června 2008[31]

Sedmá řada (2007–2008)Editovat

Č. v seriáluČ. v řaděPůvodní názevČeský názevRežieScénářPremiéra v USA
(The CW)
Premiéra v ČR
1331BizarroProtějšek Michael RohlBrian Peterson a Kelly Souders20070927a27. září 200720100215a15. února 2010[32]
1342KaraSestřenka Kara James ConwayTodd Slavkin a Darren Swimmer20071004a4. října 200720100216a16. února 2010[32]
1353FierceDivokost Whitney RansickHolly Harold20071011a11. října 200720100217a17. února 2010[32]
1364CureLéčba Rick RosenthalAl Septien a Turi Meyer20071018a18. října 200720100218a18. února 2010[32]
1375ActionKlapka, kamera, akce Mairzee AlmasCaroline Dries20071025a25. října 200720100219a19. února 2010[32]
1386LaraLara James ConwayDon Whitehead a Holly Henderson20071101a1. listopadu 200720100222a22. února 2010[33]
1397WrathHněv Charles BeesonKelly Souders a Brian Peterson20071108a8. listopadu 200720100223a23. února 2010[33]
1408BlueModrá Glen WinterTodd Slavkin a Darren Swimmer20071115a15. listopadu 200720100224a24. února 2010[33]
1419GeminiBlíženci Whitney RansickCaroline Dries20071213a13. prosince 200720100225a25. února 2010[33]
14210PersonaOsobnost Todd SlavkinDon Whitehead a Holly Henderson20080131a31. ledna 200820100226a26. února 2010[33]
14311SirenSvůdkyně Kevin G. FairKelly Souders a Brian Peterson20080207a7. února 200820100301a1. března 2010[34]
14412FractureZlom James Marshallnámět: Al Septien a Turi Meyer
scénář: Caroline Dries
20080214a14. února 200820100302a2. března 2010[34]
14513HeroHrdina Michael RohlAaron Helbing a Todd Helbing20080313a13. března 200820100303a3. března 2010[34]
14614TravelerCestovatel Glen Winternámět: Al Septien a Turi Meyer
scénář: Don Whitehead a Holly Henderson
20080320a20. března 200820100304a4. března 2010[34]
14715VeritasPravda James MarshallKelly Souders a Brian Peterson20080327a27. března 200820100305a5. března 2010[34]
14816DescentPád Ken HortonDon Whitehead a Holly Henderson20080417a17. dubna 200820100308a8. března 2010[35]
14917SleeperSpící agent Whitney RansickCaroline Dries20080424a24. dubna 200820100309a9. března 2010[35]
15018ApocalypseApokalypsa Tom WellingAl Septien a Turi Meyer20080501a1. května 200820100310a10. března 2010[35]
15119QuestPouť Kenneth BillerHolly Harold20080508a8. května 200820100311a11. března 2010[35]
15220ArcticArktida Todd SlavkinDon Whitehead a Holly Henderson20080515a15. května 200820100312a12. března 2010[35]

Osmá řada (2008–2009)Editovat

Č. v seriáluČ. v řaděPůvodní názevČeský názevRežieScénářPremiéra v USA
(The CW)
Premiéra v ČR
1531OdysseyOdysea Kevin G. Fairnámět: Brian Peterson a Kelly Souders
scénář: Todd Slavkin a Darren Swimmer
20080918a18. září 200820100315a15. března 2010[36]
1542PlastiquePlastická trhavina Rick RosenthalDon Whitehead a Holly Henderson20080925a25. září 200820100316a16. března 2010[36]
1553InstinctInstinkt Mairzee AlmasCaroline Dries20081002a2. října 200820100317a17. března 2010[36]
1564ToxicOtrava James ConwayAl Septien a Turi Meyer20081009a9. října 200820100318a18. března 2010[36]
1575CommittedOddanost Glen WinterBryan Q. Miller20081016a16. října 200820100319a19. března 2010[36]
1586PreyKořist Michael RohlKelly Souders a Brian Peterson20081023a23. října 200820100322a22. března 2010[37]
1597IdentityTotožnost Mairzee AlmasTodd Slavkin a Darren Swimmer20081030a30. října 200820100323a23. března 2010[37]
1608BloodlineVlastní krev Michael RohlCaroline Dries20081106a6. listopadu 200820100324a24. března 2010[37]
1619AbyssPropast Kevin G. FairDon Whitehead a Holly Henderson20081113a13. listopadu 200820100325a25. března 2010[37]
16210BrideNevěsta Jeannot SzwarcAl Septien a Turi Meyer20081120a20. listopadu 200820100326a26. března 2010[37]
16311LegionLegie superhrdinů Glen WinterGeoff Johns20090115a15. ledna 200920100329a29. března 2010[38]
16412BulletproofNeprůstřelný Morgan BeggsBryan Miller20090122a22. ledna 200920100330a30. března 2010[38]
16513PowerMoc Allison MackTodd Slavkin a Darren Swimmer20090129a29. ledna 200920100331a31. března 2010[38]
16614RequiemRekviem Michael RohlDon Whitehead a Holly Henderson20090205a5. února 200920100401a1. dubna 2010[38]
16715InfamousPochybná sláva Glen WinterCaroline Dries20090312a12. března 200920100402a2. dubna 2010[38]
16816TurbulenceTurbulence Kevin G. FairAl Septien a Turi Meyer20090319a19. března 200920100406a6. dubna 2010[39]
16917HexKouzlo Mairzee AlmasBryan Miller20090326a26. března 200920100407a7. dubna 2010[39]
17018EternalPravá podoba James MarshallBrian Peterson a Kelly Souders20090402a2. dubna 200920100408a8. dubna 2010[39]
17119StilettoStiletto Kevin G. FairCaroline Dries20090423a23. dubna 200920100409a9. dubna 2010[39]
17220BeastŠelma Michael RohlGenevieve Sparling20090430a30. dubna 200920100412a12. dubna 2010[40]
17321InjusticeNespravedlnost Tom WellingAl Septien a Turi Meyer20090507a7. května 200920100413a13. dubna 2010[40]
17422DoomsdayDoomsday James MarshallBrian Peterson a Kelly Souders20090514a14. května 200920100414a14. dubna 2010[40]

Devátá řada (2009–2010)Editovat

Č. v seriáluČ. v řaděPůvodní názevČeský názevRežieScénářPremiéra v USA
(The CW)
Premiéra v ČR
1751SaviorSpasitel Kevin G. FairKelly Souders a Brian Peterson20090925a25. září 200920110923a23. září 2011[41]
1762MetalloMetallo Mairzee AlmasDon Whitehead a Holly Henderson20091002a2. října 200920110926a26. září 2011[42]
1773RabidBěsi Michael RohlJordan Hawley20091009a9. října 200920110927a27. září 2011[42]
1784EchoOzvěna Wayne RoseBryan Miller20091016a16. října 200920110929a29. září 2011[42]
1795RouletteRuleta Kevin G. FairGenevieve Sparling20091023a23. října 200920110930a30. září 2011[42]
1806CrossfirePrůnik Michael RohlDon Whitehead a Holly Henderson20091030a30. října 200920111003a3. října 2011[43]
1817KandorKandor Jeannot SzwarcAl Septien a Turi Meyer20091106a6. listopadu 200920111004a4. října 2011[43]
1828IdolIdol Glen WinterAnne Cofell Saunders20091113a13. listopadu 200920111005a5. října 2011[43]
1839PandoraPandora Morgan BeggsDrew Landis a Julia Swift20091120a20. listopadu 200920111006a6. října 2011[43]
18410DiscipleUčeň Mairzee AlmasJordan Hawley20100129a29. ledna 201020111007a7. října 2011[43]
185–18611
12
Absolute JusticeAbsolutní spravedlnost (1. část – Spolek)
Absolutní spravedlnost (2. část – Legendy)
Glen Winter
Tom Welling
Geoff Johns20100205a5. února 201020111010a10. října 2011[44]
20111011a11. října 2011[44]
18713WarriorWarrior Allison MackBryan Miller20100212a12. února 201020111012a12. října 2011[44]
18814PersuasionPřesvědčivost Christopher PetryAnne Cofell Saunders20100219a19. února 201020111013a13. října 2011[44]
18915ConspiracySpiknutí Turi MeyerAl Septien a Turi Meyer20100226a26. února 201020111014a14. října 2011[44]
19016EscapeÚnik Kevin G. FairGenevieve Sparling20100402a2. dubna 201020111017a17. října 2011[45]
19117CheckmateŠach mat Tim ScanlanJohn Chisholm20100409a9. dubna 201020111018a18. října 2011[45]
19218UpgradeVylepšení Michael RohlDrew Landis a Julia Swift20100416a16. dubna 201020111019a19. října 2011[45]
19319CharadeŠaráda Brian PetersonDon Whitehead a Holly Henderson20100423a23. dubna 201020111020a20. října 2011[45]
19420SacrificeOběť Kevin G. Fairnámět: Justin Hartley a Walter Wong
scénář: Justin Hartley, Walter Wong a Bryan Miller
20100430a30. dubna 201020111021a21. října 2011[45]
19521HostageRukojmí Glen WinterJordan Hawley a Anne Cofell Saunders20100507a7. května 201020111024a24. října 2011[46]
19622SalvationSpása Greg BeemanAl Septien a Turi Meyer20100514a14. května 201020111025a25. října 2011[46]

Desátá řada (2010–2011)Editovat

Č. v seriáluČ. v řaděPůvodní názevČeský názevRežieScénářPremiéra v USA
(The CW)
Premiéra v ČR
1971LazarusLazarus Kevin G. FairDon Whitehead a Holly Henderson20100924a24. září 201020111026a26. října 2011[46]
1982ShieldŠtít Glen WinterJordan Hawley20101001a1. října 201020111027a27. října 2011[46][p. 1]
1993SupergirlSupergirl Mairzee AlmasAnne Cofell Saunders20101008a8. října 201020130404a4. dubna 2013[47][p. 1]
2004HomecomingNávrat domů Jeannot SzwarcBrian Peterson a Kelly Souders20101015a15. října 201020130405a5. dubna 2013[47]
2015IsisIsis James MarshallGenevieve Sparling20101022a22. října 201020130408a8. dubna 2013[48]
2026HarvestDožínky Turi MeyerAl Septien a Turi Meyer20101029a29. října 201020130409a9. dubna 2013[48]
2037AmbushÚtok Christopher PetryDon Whitehead a Holly Henderson20101105a5. listopadu 201020130410a10. dubna 2013[48]
2048AbandonedOpuštění Kevin G. FairDrew Landis a Julia Swift20101112a12. listopadu 201020130411a11. dubna 2013[48]
2059PatriotVlastenec Tom WellingJohn Chisholm20101119a19. listopadu 201020130412a12. dubna 2013[48]
20610LuthorLuthor Kelly SoudersBryan Q. Miller20101203a3. prosince 201020130415a15. dubna 2013[49]
20711IcarusIcarus Mairzee AlmasGenevieve Sparling20101210a10. prosince 201020130416a16. dubna 2013[49]
20812CollateralDůvěra Morgan BeggsJordan Hawley20110204a4. února 201120130417a17. dubna 2013[49]
20913BeaconNaděje Mike RohlDon Whitehead a Holly Henderson20110211a11. února 201120130418a18. dubna 2013[49]
21014MasqueradeMasky Tim ScanlanBryan Q. Miller20110218a18. února 201120130419a19. dubna 2013[49]
21115FortuneFortune Christopher PetryAnne Cofell Saunders20110225a25. února 201120130422a22. dubna 2013[50]
21216ScionPotomek Al SeptienAl Septien a Turi Meyer20110304a4. března 201120130423a23. dubna 2013[50]
21317KentKent Jeannot Szwarcnámět: Genevieve Sparling
scénář: Brian Peterson a Kelly Souders
20110415a15. dubna 201120130424a24. dubna 2013[50]
21418BoosterBooster Tom WellingGeoff Johns20110422a22. dubna 201120130425a25. dubna 2013[50]
21519DominionNadvláda Justin HartleyJohn Chisholm20110429a29. dubna 201120130426a26. dubna 2013[50]
21620ProphecyProroctví Mike RohlBryan Q. Miller a Anne Cofell Saunders20110506a6. května 201120130429a29. dubna 2013[51]
217–21821
22
FinaleZávěr Kevin G. Fair
Greg Beeman
Al Septien a Turi Meyer
Brian Peterson a Kelly Souders
20110513a13. května 201120130430a30. dubna 2013[51]
20130501a1. května 2013[51]

OdkazyEditovat

PoznámkyEditovat

  1. a b Na konci října 2011 byly po premiérovém vysílání deváté řady odvysílány na TV Nova první dva díly desáté sezóny. Dalšími epizodami však Smallville na českých obrazovkách nepokračoval. Celá desátá řada (včetně reprízy prvních dvou dílů) byla poprvé odvysílána v dubnu a květnu 2013 na stanici Fanda.

ReferenceEditovat

  1. a b c d Týdeník Televize. 2003, čís. 34, s. 33–51. 
  2. a b c d e Týdeník Televize. 2003, čís. 35, s. 27–51. 
  3. a b c d e Týdeník Televize. 2003, čís. 36, s. 31–55. 
  4. a b c d e Týdeník Televize. 2003, čís. 37, s. 27–51. 
  5. a b Týdeník Televize. 2003, čís. 38, s. 31–37. 
  6. a b Týdeník Televize. 2004, čís. 32, s. 45–51. 
  7. a b c d e Týdeník Televize. 2004, čís. 33, s. 27–51. 
  8. a b c d e Týdeník Televize. 2004, čís. 34, s. 27–51. 
  9. a b c d e Týdeník Televize. 2004, čís. 35, s. 27–51. 
  10. a b c d e Týdeník Televize. 2004, čís. 36, s. 27–51. 
  11. Týdeník Televize. 2004, čís. 37, s. 27. 
  12. a b c d e Týdeník Televize. 2006, čís. 12, s. 30–54. 
  13. a b c d e Týdeník Televize. 2006, čís. 13, s. 30–54. 
  14. a b c d e Týdeník Televize. 2006, čís. 14, s. 34–58. 
  15. a b c d e Týdeník Televize. 2006, čís. 15, s. 30–54. 
  16. a b c d Týdeník Televize. 2006, čís. 16, s. 36–54. 
  17. a b c d e Týdeník Televize. 2006, čís. 17, s. 30–54. 
  18. a b c d Týdeník Televize. 2006, čís. 18, s. 36–54. 
  19. a b c d Týdeník Televize. 2006, čís. 19, s. 36–54. 
  20. a b c d e Týdeník Televize. 2006, čís. 20, s. 33–54. 
  21. a b Týdeník Televize. 2006, čís. 21, s. 30–36. 
  22. a b c d e Týdeník Televize. 2008, čís. 14, s. 29–53. 
  23. a b c d e Týdeník Televize. 2008, čís. 15, s. 29–53. 
  24. a b c d e Týdeník Televize. 2008, čís. 16, s. 29–53. 
  25. a b c d e Týdeník Televize. 2008, čís. 17, s. 29–53. 
  26. a b c d Týdeník Televize. 2008, čís. 18, s. 29–53. 
  27. a b c d Týdeník Televize. 2008, čís. 19, s. 29–53. 
  28. a b c d e Týdeník Televize. 2008, čís. 20, s. 29–53. 
  29. a b c d e Týdeník Televize. 2008, čís. 21, s. 29–53. 
  30. a b c d e Týdeník Televize. 2008, čís. 22, s. 29–53. 
  31. Týdeník Televize. 2008, čís. 23, s. 29. 
  32. a b c d e Týdeník Televize. 2010, čís. 7, s. 29–53. 
  33. a b c d e Týdeník Televize. 2010, čís. 8, s. 29–53. 
  34. a b c d e Týdeník Televize. 2010, čís. 9, s. 29–53. 
  35. a b c d e Týdeník Televize. 2010, čís. 10, s. 29–53. 
  36. a b c d e Týdeník Televize. 2010, čís. 11, s. 29–53. 
  37. a b c d e Týdeník Televize. 2010, čís. 12, s. 29–53. 
  38. a b c d e Týdeník Televize. 2010, čís. 13, s. 29–53. 
  39. a b c d Týdeník Televize. 2010, čís. 14, s. 35–53. 
  40. a b c Týdeník Televize. 2010, čís. 15, s. 29–53. 
  41. Týdeník Televize. 2011, čís. 38, s. 51. 
  42. a b c d Týdeník Televize. 2011, čís. 39, s. 27–51. 
  43. a b c d e Týdeník Televize. 2011, čís. 40, s. 27–51. 
  44. a b c d e Týdeník Televize. 2011, čís. 41, s. 27–51. 
  45. a b c d e Týdeník Televize. 2011, čís. 42, s. 27–51. 
  46. a b c d Týdeník Televize. 2011, čís. 43, s. 27–45. 
  47. a b Týdeník Televize. 2013, čís. 14, s. 50–56. 
  48. a b c d e Týdeník Televize. 2013, čís. 15, s. 32–56. 
  49. a b c d e Týdeník Televize. 2013, čís. 16, s. 32–56. 
  50. a b c d e Týdeník Televize. 2013, čís. 17, s. 32–56. 
  51. a b c Týdeník Televize. 2013, čís. 18, s. 32–44. 

Externí odkazyEditovat